Time,TemperatureF,DewpointF,PressureIn,WindDirection,WindDirectionDegrees,WindSpeedMPH,WindSpeedGustMPH,Humidity,HourlyPrecipIn,Conditions,Clouds,dailyrainin,SoftwareType,DateUTC
2013-05-17 00:03:00,50.0,40.0,29.88,NNW,337,4.0,11.0,69,0.00,,,0.00,,2013-05-17 04:03:00,
2013-05-17 00:13:00,50.0,40.0,29.88,NNW,337,4.0,11.0,69,0.00,,,0.00,,2013-05-17 04:13:00,
2013-05-17 00:23:00,50.0,40.0,29.88,North,355,6.0,13.0,69,0.00,,,0.00,,2013-05-17 04:23:00,
2013-05-17 00:33:00,49.0,40.0,29.89,NNW,334,5.0,10.0,70,0.00,,,0.00,,2013-05-17 04:33:00,
2013-05-17 00:43:00,49.0,40.0,29.89,NNW,334,5.0,10.0,70,0.00,,,0.00,,2013-05-17 04:43:00,
2013-05-17 00:53:00,49.0,40.0,29.89,North,5,8.0,16.0,70,0.00,,,0.00,,2013-05-17 04:53:00,
2013-05-17 01:03:00,48.0,39.0,29.90,NW,310,9.0,15.0,71,0.00,,,0.00,,2013-05-17 05:03:00,
2013-05-17 01:14:00,48.0,39.0,29.90,NW,310,9.0,15.0,71,0.00,,,0.00,,2013-05-17 05:14:00,
2013-05-17 01:22:00,47.0,38.0,29.91,North,5,6.0,15.0,71,0.00,,,0.00,,2013-05-17 05:22:00,
2013-05-17 01:32:00,47.0,38.0,29.90,NNE,12,5.0,18.0,72,0.00,,,0.00,,2013-05-17 05:32:00,
2013-05-17 01:42:00,47.0,38.0,29.90,NNE,12,5.0,18.0,72,0.00,,,0.00,,2013-05-17 05:42:00,
2013-05-17 01:52:00,47.0,38.0,29.90,NE,36,0.0,9.0,72,0.00,,,0.00,,2013-05-17 05:52:00,
2013-05-17 02:02:00,46.0,37.0,29.91,SSE,160,0.0,7.0,71,0.00,,,0.00,,2013-05-17 06:02:00,
2013-05-17 02:11:00,46.0,37.0,29.91,SSE,160,0.0,7.0,71,0.00,,,0.00,,2013-05-17 06:11:00,
2013-05-17 02:22:00,46.0,37.0,29.91,South,184,1.0,5.0,72,0.00,,,0.00,,2013-05-17 06:22:00,
2013-05-17 02:32:00,46.0,37.0,29.90,South,189,3.0,10.0,72,0.00,,,0.00,,2013-05-17 06:32:00,
2013-05-17 02:42:00,46.0,37.0,29.90,South,189,3.0,10.0,72,0.00,,,0.00,,2013-05-17 06:42:00,
2013-05-17 02:52:00,46.0,37.0,29.91,SE,136,3.0,10.0,72,0.00,,,0.00,,2013-05-17 06:52:00,
2013-05-17 03:02:00,46.0,38.0,29.92,SSE,166,2.0,9.0,73,0.00,,,0.00,,2013-05-17 07:02:00,
2013-05-17 03:11:00,46.0,38.0,29.92,SSE,166,2.0,9.0,73,0.00,,,0.00,,2013-05-17 07:11:00,
2013-05-17 03:21:00,46.0,38.0,29.93,ESE,114,1.0,6.0,73,0.00,,,0.00,,2013-05-17 07:21:00,
2013-05-17 03:32:00,46.0,38.0,29.93,North,355,0.0,8.0,73,0.00,,,0.00,,2013-05-17 07:32:00,
2013-05-17 03:43:00,46.0,38.0,29.93,North,355,0.0,8.0,73,0.00,,,0.00,,2013-05-17 07:43:00,
2013-05-17 03:53:00,46.0,38.0,29.93,North,355,0.0,1.0,73,0.00,,,0.00,,2013-05-17 07:53:00,
2013-05-17 04:02:00,46.0,39.0,29.93,North,355,0.0,0.0,75,0.00,,,0.00,,2013-05-17 08:02:00,
2013-05-17 04:12:00,46.0,39.0,29.93,North,355,0.0,0.0,75,0.00,,,0.00,,2013-05-17 08:12:00,
2013-05-17 04:23:00,46.0,39.0,29.94,North,355,0.0,1.0,76,0.00,,,0.00,,2013-05-17 08:23:00,
2013-05-17 04:33:00,46.0,39.0,29.94,North,355,1.0,4.0,76,0.00,,,0.00,,2013-05-17 08:33:00,
2013-05-17 04:42:00,46.0,39.0,29.94,North,355,1.0,4.0,76,0.00,,,0.00,,2013-05-17 08:42:00,
2013-05-17 04:52:00,46.0,40.0,29.95,NE,43,1.0,6.0,78,0.00,,,0.00,,2013-05-17 08:52:00,
2013-05-17 05:02:00,46.0,40.0,29.95,NE,34,0.0,5.0,79,0.00,,,0.00,,2013-05-17 09:02:00,
2013-05-17 05:12:00,46.0,40.0,29.95,NE,34,0.0,5.0,79,0.00,,,0.00,,2013-05-17 09:12:00,
2013-05-17 05:22:00,46.0,41.0,29.95,SE,134,0.0,5.0,81,0.00,,,0.00,,2013-05-17 09:22:00,
2013-05-17 05:33:00,46.0,41.0,29.96,SE,125,0.0,2.0,82,0.00,,,0.00,,2013-05-17 09:33:00,
2013-05-17 05:42:00,46.0,41.0,29.96,SE,125,0.0,2.0,82,0.00,,,0.00,,2013-05-17 09:42:00,
2013-05-17 05:53:00,46.0,41.0,29.97,NW,323,4.0,6.0,83,0.00,,,0.00,,2013-05-17 09:53:00,
2013-05-17 06:03:00,45.0,41.0,29.97,North,360,2.0,8.0,85,0.00,,,0.00,,2013-05-17 10:03:00,
2013-05-17 06:12:00,45.0,41.0,29.97,North,360,2.0,8.0,85,0.00,,,0.00,,2013-05-17 10:12:00,
2013-05-17 06:23:00,45.0,41.0,29.98,NW,318,0.0,8.0,87,0.00,,,0.00,,2013-05-17 10:23:00,
2013-05-17 06:33:00,45.0,42.0,30.00,North,355,0.0,7.0,88,0.00,,,0.00,,2013-05-17 10:33:00,
2013-05-17 06:42:00,45.0,42.0,30.00,North,355,0.0,7.0,88,0.00,,,0.00,,2013-05-17 10:42:00,
2013-05-17 06:54:00,45.0,42.0,30.01,North,355,0.0,1.0,89,0.00,,,0.00,,2013-05-17 10:54:00,
2013-05-17 07:02:00,45.0,42.0,30.01,North,355,0.0,4.0,90,0.00,,,0.00,,2013-05-17 11:02:00,
2013-05-17 07:12:00,45.0,42.0,30.01,North,355,0.0,4.0,90,0.00,,,0.00,,2013-05-17 11:12:00,
2013-05-17 07:23:00,45.0,42.0,30.02,NNE,17,0.0,2.0,90,0.00,,,0.00,,2013-05-17 11:23:00,
2013-05-17 07:34:00,45.0,42.0,30.02,NNW,348,1.0,5.0,89,0.00,,,0.00,,2013-05-17 11:34:00,
2013-05-17 07:42:00,45.0,42.0,30.02,NNW,348,1.0,5.0,89,0.00,,,0.00,,2013-05-17 11:42:00,
2013-05-17 07:53:00,46.0,43.0,30.03,NNW,334,0.0,8.0,88,0.00,,,0.00,,2013-05-17 11:53:00,
2013-05-17 08:03:00,46.0,42.0,30.04,NNW,335,0.0,1.0,87,0.00,,,0.00,,2013-05-17 12:03:00,
2013-05-17 08:12:00,46.0,42.0,30.04,NNW,335,0.0,1.0,87,0.00,,,0.00,,2013-05-17 12:12:00,
2013-05-17 08:23:00,47.0,43.0,30.03,NNW,336,0.0,3.0,87,0.00,,,0.00,,2013-05-17 12:23:00,
2013-05-17 08:32:00,49.0,43.0,30.04,NW,304,3.0,8.0,81,0.00,,,0.00,,2013-05-17 12:32:00,
2013-05-17 08:43:00,49.0,43.0,30.04,NW,304,3.0,8.0,81,0.00,,,0.00,,2013-05-17 12:43:00,
2013-05-17 08:53:00,49.0,43.0,30.05,North,355,0.0,7.0,79,0.00,,,0.00,,2013-05-17 12:53:00,
2013-05-17 09:03:00,50.0,42.0,30.05,SSW,200,5.0,11.0,74,0.00,,,0.00,,2013-05-17 13:03:00,
2013-05-17 09:12:00,50.0,42.0,30.05,SSW,200,5.0,11.0,74,0.00,,,0.00,,2013-05-17 13:12:00,
2013-05-17 09:23:00,51.0,41.0,30.06,NNE,15,6.0,12.0,68,0.00,,,0.00,,2013-05-17 13:23:00,
2013-05-17 09:33:00,52.0,41.0,30.06,NE,53,11.0,19.0,67,0.00,,,0.00,,2013-05-17 13:33:00,
2013-05-17 09:42:00,52.0,41.0,30.06,NE,53,11.0,19.0,67,0.00,,,0.00,,2013-05-17 13:42:00,
2013-05-17 09:52:00,53.0,41.0,30.07,NNW,336,8.0,19.0,64,0.00,,,0.00,,2013-05-17 13:52:00,
2013-05-17 10:02:00,53.0,40.0,30.07,North,355,10.0,14.0,61,0.00,,,0.00,,2013-05-17 14:02:00,
2013-05-17 10:13:00,53.0,40.0,30.07,North,355,10.0,14.0,61,0.00,,,0.00,,2013-05-17 14:13:00,
2013-05-17 10:22:00,54.0,40.0,30.08,NNE,19,9.0,18.0,60,0.00,,,0.00,,2013-05-17 14:22:00,
2013-05-17 10:34:00,54.0,41.0,30.08,NNE,17,6.0,18.0,61,0.00,,,0.00,,2013-05-17 14:34:00,
2013-05-17 10:43:00,54.0,41.0,30.08,NNE,17,6.0,18.0,61,0.00,,,0.00,,2013-05-17 14:43:00,
2013-05-17 10:53:00,54.0,41.0,30.08,NNE,17,6.0,18.0,61,0.00,,,0.00,,2013-05-17 14:53:00,
2013-05-17 11:03:00,56.0,40.0,30.09,ESE,105,6.0,-999.0,54,-99.99,,,-99.99,,2013-05-17 15:03:00,
2013-05-17 11:14:00,56.0,40.0,30.09,ESE,105,6.0,-999.0,54,-99.99,,,-99.99,,2013-05-17 15:14:00,
2013-05-17 11:25:00,57.0,40.0,30.09,NNE,28,2.0,10.0,53,0.00,,,0.00,,2013-05-17 15:25:00,
2013-05-17 11:37:00,59.0,40.0,30.10,West,261,11.0,25.0,49,0.00,,,0.00,,2013-05-17 15:37:00,
2013-05-17 11:47:00,59.0,40.0,30.10,West,261,11.0,25.0,49,0.00,,,0.00,,2013-05-17 15:47:00,
2013-05-17 11:57:00,59.0,40.0,30.09,NNE,33,4.0,10.0,49,0.00,,,0.00,,2013-05-17 15:57:00,
2013-05-17 12:07:00,60.0,40.0,30.09,NNW,333,8.0,19.0,47,0.00,,,0.00,,2013-05-17 16:07:00,
2013-05-17 12:14:00,60.0,40.0,30.09,NNW,333,8.0,19.0,47,0.00,,,0.00,,2013-05-17 16:14:00,
2013-05-17 12:26:00,60.0,40.0,30.10,NW,308,4.0,16.0,47,0.00,,,0.00,,2013-05-17 16:26:00,
2013-05-17 12:37:00,62.0,40.0,30.09,North,360,6.0,10.0,45,0.00,,,0.00,,2013-05-17 16:37:00,
2013-05-17 12:49:00,62.0,40.0,30.09,North,360,6.0,10.0,45,0.00,,,0.00,,2013-05-17 16:49:00,
2013-05-17 12:56:00,61.0,40.0,30.09,NNE,17,5.0,11.0,46,0.00,,,0.00,,2013-05-17 16:56:00,
2013-05-17 13:08:00,61.0,40.0,30.09,NNW,342,6.0,13.0,46,0.00,,,0.00,,2013-05-17 17:08:00,
2013-05-17 13:19:00,61.0,40.0,30.09,NNW,342,6.0,13.0,46,0.00,,,0.00,,2013-05-17 17:19:00,
2013-05-17 13:30:00,61.0,40.0,30.09,NNE,19,4.0,15.0,45,0.00,,,0.00,,2013-05-17 17:30:00,
2013-05-17 13:40:00,61.0,-99.9,30.09,North,5,5.0,15.0,45,0.00,,,0.00,,2013-05-17 17:40:00,
2013-05-17 13:49:00,61.0,40.0,30.09,North,5,5.0,15.0,45,0.00,,,0.00,,2013-05-17 17:49:00,
2013-05-17 14:00:00,60.0,-99.9,30.09,NW,318,7.0,15.0,45,0.00,,,0.00,,2013-05-17 18:00:00,
2013-05-17 14:09:00,61.0,40.0,30.10,North,355,6.0,10.0,46,0.00,,,0.00,,2013-05-17 18:09:00,
2013-05-17 14:20:00,61.0,40.0,30.10,North,355,6.0,10.0,46,0.00,,,0.00,,2013-05-17 18:20:00,
2013-05-17 14:30:00,61.0,39.0,30.10,East,84,5.0,12.0,44,0.00,,,0.00,,2013-05-17 18:30:00,
2013-05-17 14:40:00,62.0,-99.9,30.10,NNW,330,8.0,13.0,43,0.00,,,0.00,,2013-05-17 18:40:00,
2013-05-17 14:50:00,-999.0,-99.9,30.10,NNW,330,8.0,13.0,43,0.00,,,0.00,,2013-05-17 18:50:00,
2013-05-17 15:00:00,63.0,-99.9,30.10,NNW,328,8.0,14.0,44,0.00,,,0.00,,2013-05-17 19:00:00,
2013-05-17 15:10:00,64.0,40.0,30.11,North,355,4.0,14.0,41,0.00,,,0.00,,2013-05-17 19:10:00,
2013-05-17 15:20:00,64.0,40.0,30.11,North,355,4.0,14.0,41,0.00,,,0.00,,2013-05-17 19:20:00,
2013-05-17 15:30:00,65.0,41.0,30.11,NNW,327,2.0,15.0,41,0.00,,,0.00,,2013-05-17 19:30:00,
2013-05-17 15:40:00,64.0,40.0,30.11,NNE,14,5.0,12.0,42,0.00,,,0.00,,2013-05-17 19:40:00,
2013-05-17 15:51:00,64.0,40.0,30.11,NNE,14,5.0,12.0,42,0.00,,,0.00,,2013-05-17 19:51:00,
2013-05-17 16:01:00,-999.0,-99.9,30.11,East,80,4.0,11.0,43,0.00,,,0.00,,2013-05-17 20:01:00,
2013-05-17 16:09:00,63.0,39.0,30.11,NNW,331,8.0,18.0,41,0.00,,,0.00,,2013-05-17 20:09:00,
2013-05-17 16:20:00,63.0,39.0,30.11,NNW,331,8.0,18.0,41,0.00,,,0.00,,2013-05-17 20:20:00,
2013-05-17 16:30:00,63.0,40.0,30.11,NNE,30,5.0,12.0,42,0.00,,,0.00,,2013-05-17 20:30:00,
2013-05-17 16:40:00,63.0,40.0,30.11,North,5,5.0,12.0,43,0.00,,,0.00,,2013-05-17 20:40:00,
2013-05-17 16:50:00,63.0,40.0,30.11,North,5,5.0,12.0,43,0.00,,,0.00,,2013-05-17 20:50:00,
2013-05-17 16:58:00,63.0,39.0,30.11,East,84,7.0,13.0,41,0.00,,,0.00,,2013-05-17 20:58:00,
2013-05-17 17:07:00,62.0,40.0,30.12,NNW,327,4.0,8.0,44,0.00,,,0.00,,2013-05-17 21:07:00,
2013-05-17 17:17:00,62.0,40.0,30.12,NNW,327,4.0,8.0,44,0.00,,,0.00,,2013-05-17 21:17:00,
2013-05-17 17:26:00,63.0,40.0,30.12,NE,41,6.0,12.0,43,0.00,,,0.00,,2013-05-17 21:26:00,
2013-05-17 17:39:00,63.0,40.0,30.12,NNW,343,6.0,12.0,43,0.00,,,0.00,,2013-05-17 21:39:00,
2013-05-17 17:49:00,63.0,40.0,30.12,NNW,343,6.0,12.0,43,0.00,,,0.00,,2013-05-17 21:49:00,
2013-05-17 17:58:00,64.0,40.0,30.11,North,360,5.0,11.0,42,0.00,,,0.00,,2013-05-17 21:58:00,
2013-05-17 18:07:00,64.0,40.0,30.12,North,360,1.0,10.0,42,0.00,,,0.00,,2013-05-17 22:07:00,
2013-05-17 18:17:00,64.0,40.0,30.12,North,360,1.0,10.0,42,0.00,,,0.00,,2013-05-17 22:17:00,
2013-05-17 18:28:00,64.0,40.0,30.13,North,360,5.0,10.0,42,0.00,,,0.00,,2013-05-17 22:28:00,
2013-05-17 18:38:00,63.0,40.0,30.13,North,5,2.0,9.0,42,0.00,,,0.00,,2013-05-17 22:38:00,
2013-05-17 18:47:00,63.0,40.0,30.13,North,5,2.0,9.0,42,0.00,,,0.00,,2013-05-17 22:47:00,
2013-05-17 18:55:00,63.0,40.0,30.13,NNW,332,4.0,8.0,43,0.00,,,0.00,,2013-05-17 22:55:00,
2013-05-17 19:04:00,63.0,41.0,30.14,NNW,345,5.0,7.0,44,0.00,,,0.00,,2013-05-17 23:04:00,
2013-05-17 19:13:00,63.0,41.0,30.14,NNW,345,5.0,7.0,44,0.00,,,0.00,,2013-05-17 23:13:00,
2013-05-17 19:23:00,62.0,40.0,30.14,North,5,1.0,5.0,45,0.00,,,0.00,,2013-05-17 23:23:00,
2013-05-17 19:37:00,62.0,44.0,30.14,North,360,0.0,1.0,51,0.00,,,0.00,,2013-05-17 23:37:00,
2013-05-17 19:47:00,62.0,44.0,30.14,North,360,0.0,1.0,51,0.00,,,0.00,,2013-05-17 23:47:00,
2013-05-17 19:54:00,59.0,43.0,30.14,North,360,0.0,1.0,56,0.00,,,0.00,,2013-05-17 23:54:00,
2013-05-17 20:02:00,57.0,44.0,30.14,North,5,0.0,1.0,62,0.00,,,0.00,,2013-05-18 00:02:00,
2013-05-17 20:14:00,57.0,44.0,30.14,North,5,0.0,1.0,62,0.00,,,0.00,,2013-05-18 00:14:00,
2013-05-17 20:22:00,54.0,43.0,30.14,North,360,0.0,1.0,66,0.00,,,0.00,,2013-05-18 00:22:00,
2013-05-17 20:33:00,52.0,43.0,30.15,North,5,0.0,1.0,72,0.00,,,0.00,,2013-05-18 00:33:00,
2013-05-17 20:44:00,52.0,43.0,30.15,North,5,0.0,1.0,72,0.00,,,0.00,,2013-05-18 00:44:00,
2013-05-17 20:54:00,51.0,43.0,30.16,North,5,0.0,0.0,75,0.00,,,0.00,,2013-05-18 00:54:00,
2013-05-17 21:03:00,49.0,42.0,30.17,North,5,0.0,1.0,78,0.00,,,0.00,,2013-05-18 01:03:00,
2013-05-17 21:24:00,48.0,42.0,30.17,North,5,0.0,1.0,80,0.00,,,0.00,,2013-05-18 01:24:00,
2013-05-17 21:32:00,47.0,42.0,30.19,North,5,0.0,1.0,82,0.00,,,0.00,,2013-05-18 01:32:00,
2013-05-17 21:43:00,47.0,42.0,30.19,North,5,0.0,1.0,82,0.00,,,0.00,,2013-05-18 01:43:00,
2013-05-17 21:52:00,46.0,41.0,30.19,North,5,0.0,0.0,83,0.00,,,0.00,,2013-05-18 01:52:00,
2013-05-17 22:02:00,45.0,40.0,30.20,North,5,0.0,0.0,84,0.00,,,0.00,,2013-05-18 02:02:00,
2013-05-17 22:12:00,45.0,40.0,30.20,North,5,0.0,0.0,84,0.00,,,0.00,,2013-05-18 02:12:00,
2013-05-17 22:22:00,45.0,41.0,30.20,North,5,0.0,1.0,86,0.00,,,0.00,,2013-05-18 02:22:00,
2013-05-17 22:32:00,44.0,40.0,30.21,North,360,0.0,0.0,86,0.00,,,0.00,,2013-05-18 02:32:00,
2013-05-17 22:42:00,44.0,40.0,30.21,North,360,0.0,0.0,86,0.00,,,0.00,,2013-05-18 02:42:00,
2013-05-17 22:54:00,43.0,39.0,30.21,North,5,0.0,0.0,87,0.00,,,0.00,,2013-05-18 02:54:00,
2013-05-17 23:03:00,43.0,40.0,30.21,North,360,0.0,0.0,88,0.00,,,0.00,,2013-05-18 03:03:00,
2013-05-17 23:12:00,43.0,40.0,30.21,North,360,0.0,0.0,88,0.00,,,0.00,,2013-05-18 03:12:00,
2013-05-17 23:23:00,42.0,39.0,30.22,North,5,0.0,0.0,89,0.00,,,0.00,,2013-05-18 03:23:00,
2013-05-17 23:33:00,42.0,39.0,30.22,North,360,0.0,0.0,90,0.00,,,0.00,,2013-05-18 03:33:00,
2013-05-17 23:43:00,42.0,39.0,30.22,North,360,0.0,0.0,90,0.00,,,0.00,,2013-05-18 03:43:00,
2013-05-17 23:53:00,41.0,38.0,30.23,North,360,0.0,1.0,90,0.00,,,0.00,,2013-05-18 03:53:00,